Regional Weather Roundup
Issued by NWS

Home | Current Version | Previous Version | Text Only | Print | Product List | Glossary On
Versions: 1 2 3 4 5 6 7 8 9 10 11 12 13 14 15 16 17 18 19 20 21 22 23 24 25 26 27
000
ASUS44 KBMX 130310
RWRAL

ALABAMA REGIONAL WEATHER ROUNDUP
NATIONAL WEATHER SERVICE BIRMINGHAM AL
1000 PM CDT FRI APR 12 2024

NOTE: "FAIR" INDICATES FEW OR NO CLOUDS BELOW 12,000 FEET
WITH NO SIGNIFICANT WEATHER AND/OR OBSTRUCTIONS TO VISIBILITY.

THE REMARK "TC" DENOTES TEMPERATURE IN DEGREES CELSIUS.

ALZ001>011-014-016>018-020-130400-
NORTH ALABAMA

CITY           SKY/WX    TMP DP  RH WIND       PRES   REMARKS
MUSCLE SHOALS  CLEAR     52  38  58 CALM      30.18R TC  11
HUNTSVILLE     CLEAR     51  38  60 W3        30.18R TC  11
DECATUR        CLEAR     55  38  52 W3        30.19R TC  13
HALEYVILLE     CLEAR     49  39  68 SW3       30.23R TC   9
GADSDEN        CLEAR     46  42  86 CALM      30.20R TC   8
$$

ALZ012-013-022-023-030>036-040>044-130400-
WEST CENTRAL ALABAMA

CITY           SKY/WX    TMP DP  RH WIND       PRES   REMARKS
TUSCALOOSA     CLEAR     50  41  71 CALM      30.22R TC  10
DEMOPOLIS      CLEAR     53  43  70 CALM      30.23R TC  12
$$

ALZ015-024>026-033>036-041>044-130400-
CENTRAL ALABAMA

CITY           SKY/WX    TMP DP  RH WIND       PRES   REMARKS
BIRMINGHAM     CLEAR     57  31  37 NW3       30.22R TC  14
MONTGOMERY     CLEAR     56  37  49 NW7       30.20R TC  13
SHELBY CO ARPT CLEAR     52  42  69 W3        30.21R TC  11
MAXWELL AFB    CLEAR     56  41  57 W3        30.18R TC  13
GREENVILLE     CLEAR     48  45  89 N3        30.21R TC   9
SELMA          CLEAR     48  45  87 CALM      30.21R TC   9
PRATTVILLE     CLEAR     55  40  57 NW3       30.20R TC  13
BESSEMER       CLEAR     55  33  43 W5        30.22R TC  13
TALLADEGA      CLEAR     50  37  62 NE2       30.19R TC  10
PELL CITY      MOCLDY    46  37  71 CALM      30.20R TC   8
SYLACAUGA      MOCLDY    48  38  67 W5        30.20R TC   9
JASPER         CLEAR     46  45  93 CALM      30.21R TC   8
$$

ALZ019-021-028-029-037-038-045>048-130400-
EAST CENTRAL ALABAMA

CITY           SKY/WX    TMP DP  RH WIND       PRES   REMARKS
ANNISTON       CLEAR     56  33  42 NW6       30.19R TC  13
ALEXANDER CITY CLEAR     49  40  72 CALM      30.19R TC   9
AUBURN         CLEAR     57  37  47 NW3       30.20R TC  14
$$

ALZ051>064-130400-
SOUTHWEST ALABAMA

CITY           SKY/WX    TMP DP  RH WIND       PRES   REMARKS
MOBILE         CLEAR     58  43  57 NW3       30.25R TC  14
BROOKLEY FIELD CLEAR     57  45  64 W3        30.25R TC  14
EVERGREEN      CLEAR     51  45  79 CALM      30.22R TC  11
$$

ALZ049-050-065>069-130400-
SOUTHEAST ALABAMA

CITY           SKY/WX    TMP DP  RH WIND       PRES   REMARKS
DOTHAN         CLEAR     59  40  49 W7        30.23R TC  15
OZARK          CLEAR     61  35  38 NW6       30.18R TC  16
TROY           CLEAR     51  43  74 CALM      30.21R TC  11
EUFAULA        CLEAR     50  42  74 W3        30.20R TC  10
$$



USA.gov is the U.S. government's official web portal to all federal, state and local government web resources and services.